METEOR 2-6 DEB, 28987

Orbit data source: Space-Track

METEOR 2-6 DEB, 28987 is space debris in LEO originally from a launch on Tue, 09 Sep 1980 UTC launched from the Plesetsk Missile And Space Complex (PKMTR). Debris objects in space refer to the collection of defunct objects orbiting the Earth. Examples of debris include non-operational satellites, rocket bodies, and fragments generated from explosions, collisions, or faulty payload assembly.

Loading next visibility...
Identifier
28987, 1980-073D
Orbit
LEO
Country
Flag of CISCIS
Related business
Manufacturer
Unknown
Mission
Spacecraft
Bus & Motor
Unknown
Mass
Unknown
Launch date (UTC)
1980-09-09 (46 years ago)
Launch vehicle
Unknown
Launch site
Plesetsk Missile And Space Complex (PKMTR)
Object type
Payload
Rocket body
Debris
Shape & HBR
Unknown shape, 0.050 m
Radar Cross Section
Small (<0.1 m²)

Expand to show TLE details & history
Last TLE update: 3 days ago

TLE from 3 days ago
0 METEOR 2-6 DEB
1 28987U 80073D   26264.31822429  .00014964  00000-0  14975-2 0  9995
2 28987  81.1792 116.6855 0007332 298.8732  61.1747 14.91319766122930
Epoch: 2026-09-21T07:38Z
TLE epoch observation values (Epoch: 2026-09-21T07:38:14.578Z)
Latitude
-0.00003°
Longitude
1.92498°
Altitude
594.365 km
Speed
7.564 km/s
True Right ascension
07h 46m 44s
True Declination
0° 00' 00"
Sunlit
Object was in daylight at epoch
Visualization orbit readout
Latitude
Unknown
Longitude
Unknown
Altitude
Unknown
Speed
Unknown
Apparent Right ascension
Unknown
Apparent Declination
Unknown
Sunlit
N/A
Visualization observer readout
Local Sidereal Time
10:06:42
Azimuth
Unknown
Elevation
Unknown
Doppler factor
Unknown
Orbital elements
Apogee altitude
595.999 km
Perigee altitude
585.779 km
Semi-major axis
6,969.026 km
Eccentricity
0.00073
Inclination
81.1792°
RAAN
116.6855°
Arg. of periapsis
298.8732°
True anomaly
61.24834°
Mean anomaly
61.1747°
Eccentric anomaly
61.21152°
Mean motion
3.73065 °/min
Orbital period
96.5 mins
BSTAR
0.0014975
Loading maneuver chart data...
Computing Atmospheric mass density...
Loading historical data...
Loading historical data...
Loading historical data...
Loading historical data...
Loading historical data...
Loading historical data...
Loading historical data...

Documentation

Showing up to 5 results
|